Location: Austin
(30.3000°N, 97.7500°W)
Time: 06:07:19
(UTC-06:00)

Cosmos 1833 Rocket - Pass Details

Date: 03 March 2026
Orbit: 832 x 838 km, 71.0° (Epoch: 6 March)

Event Time Altitude Azimuth Distance (km) Brightness Sun altitude
Rises 19:38:45 0° 346° (NNW) 3,380 6.0 -15.3°
Reaches altitude 10° 19:41:16 10° 351° (N) 2,443 5.2 -15.9°
Maximum altitude 19:46:44 54° 68° (ENE) 1,008 2.7 -17.0°
Enters shadow 19:50:58 17° 141° (SE) 1,997 4.3 -18.0°
